Home > Products > Valid Products > MTR

000
SAGM31 PGUM 291955
MTRGUM
METAR PGUM 291954Z 10004KT 10SM CLR 26/24 A2993 RMK AO2 SLP127
T02560239 $





000
SAGM31 PGUM 291955
MTRGUM
METAR PGUM 291954Z 10004KT 10SM CLR 26/24 A2993 RMK AO2 SLP127
T02560239 $




000
SAGM31 PGUM 291855
MTRGUM
METAR PGUM 291854Z 09003KT 10SM CLR 25/24 A2991 RMK AO2 SLP122
T02500239 $




000
SAGM31 PGUM 291855
MTRGUM
METAR PGUM 291854Z 09003KT 10SM CLR 25/24 A2991 RMK AO2 SLP122
T02500239 $




000
SAGM31 PGUM 291755
MTRGUM
METAR PGUM 291754Z 11004KT 10SM CLR 26/24 A2991 RMK AO2 SLP120
T02560239 10267 20250 56008 $




000
SAGM31 PGUM 291755
MTRGUM
METAR PGUM 291754Z 11004KT 10SM CLR 26/24 A2991 RMK AO2 SLP120
T02560239 10267 20250 56008 $





000
SAGM31 PGUM 291654
MTRGUM
METAR PGUM 291654Z 09003KT 10SM CLR 26/24 A2991 RMK AO2 SLP121
T02560239 $




000
SAGM31 PGUM 291654
MTRGUM
METAR PGUM 291654Z 09003KT 10SM CLR 26/24 A2991 RMK AO2 SLP121
T02560239 $





000
SAGM31 PGUM 291554
MTRGUM
METAR PGUM 291554Z 00000KT 10SM CLR 26/24 A2992 RMK AO2 SLP124
T02560239 $




000
SAGM31 PGUM 291554
MTRGUM
METAR PGUM 291554Z 00000KT 10SM CLR 26/24 A2992 RMK AO2 SLP124
T02560239 $





000
SAGM31 PGUM 291455
MTRGUM
METAR PGUM 291454Z 10003KT 10SM CLR 26/24 A2993 RMK AO2 SLP129
T02560239 58010 $





000
SAGM31 PGUM 291455
MTRGUM
METAR PGUM 291454Z 10003KT 10SM CLR 26/24 A2993 RMK AO2 SLP129
T02560239 58010 $




000
SAGM31 PGUM 291355
MTRGUM
METAR PGUM 291354Z 00000KT 10SM FEW018 26/24 A2995 RMK AO2 SLP136
T02610239 402940244 $




000
SAGM31 PGUM 291355
MTRGUM
METAR PGUM 291354Z 00000KT 10SM FEW018 26/24 A2995 RMK AO2 SLP136
T02610239 402940244 $





000
SAGM31 PGUM 291355
MTRGUM
METAR PGUM 291354Z 00000KT 10SM FEW018 26/24 A2995 RMK AO2 SLP136
T02610239 402940244 $




000
SAGM31 PGUM 291355
MTRGUM
METAR PGUM 291354Z 00000KT 10SM FEW018 26/24 A2995 RMK AO2 SLP136
T02610239 402940244 $





000
SAGM31 PGUM 291255
MTRGUM
METAR PGUM 291254Z 00000KT 10SM FEW018 26/24 A2996 RMK AO2 SLP139
T02610239 $




000
SAGM31 PGUM 291255
MTRGUM
METAR PGUM 291254Z 00000KT 10SM FEW018 26/24 A2996 RMK AO2 SLP139
T02610239 $




000
SAGM31 PGUM 291255
MTRGUM
METAR PGUM 291254Z 00000KT 10SM FEW018 26/24 A2996 RMK AO2 SLP139
T02610239 $





000
SAGM31 PGUM 291255
MTRGUM
METAR PGUM 291254Z 00000KT 10SM FEW018 26/24 A2996 RMK AO2 SLP139
T02610239 $





000
SAGM31 PGUM 291156
MTRGUM
METAR PGUM 291154Z COR 00000KT 10SM FEW018 27/24 A2996 RMK AO2
SLP138 70087 T02670239 10294 20261 51019 $





000
SAGM31 PGUM 291156
MTRGUM
METAR PGUM 291154Z COR 00000KT 10SM FEW018 27/24 A2996 RMK AO2
SLP138 70087 T02670239 10294 20261 51019 $




000
SAGM31 PGUM 291156
MTRGUM
METAR PGUM 291154Z COR 00000KT 10SM FEW018 27/24 A2996 RMK AO2
SLP138 70087 T02670239 10294 20261 51019 $




000
SAGM31 PGUM 291156
MTRGUM
METAR PGUM 291154Z COR 00000KT 10SM FEW018 27/24 A2996 RMK AO2
SLP138 70087 T02670239 10294 20261 51019 $





000
SAGM31 PGUM 291155
MTRGUM
METAR PGUM 291154Z 00000KT 10SM CLR 27/24 A2996 RMK AO2 SLP138
T02670239 10294 20261 51019 $




000
SAGM31 PGUM 291155
MTRGUM
METAR PGUM 291154Z 00000KT 10SM CLR 27/24 A2996 RMK AO2 SLP138
T02670239 10294 20261 51019 $





000
SAGM31 PGUM 291054
MTRGUM
METAR PGUM 291054Z 11003KT 10SM FEW020 27/24 A2995 RMK AO2 SLP134
T02670239 $




000
SAGM31 PGUM 290954
MTRGUM
METAR PGUM 290954Z 14004KT 10SM FEW020 27/24 A2993 RMK AO2 SLP127
T02670239 $




000
SAGM31 PGUM 290954
MTRGUM
METAR PGUM 290954Z 14004KT 10SM FEW020 27/24 A2993 RMK AO2 SLP127
T02670239 $




000
SAGM31 PGUM 290954
MTRGUM
METAR PGUM 290954Z 14004KT 10SM FEW020 27/24 A2993 RMK AO2 SLP127
T02670239 $





000
SAGM31 PGUM 290855
MTRGUM
METAR PGUM 290854Z 13005KT 10SM FEW020 27/24 A2991 RMK AO2 SLP119
T02720239 53009 $




000
SAGM31 PGUM 290855
MTRGUM
METAR PGUM 290854Z 13005KT 10SM FEW020 27/24 A2991 RMK AO2 SLP119
T02720239 53009 $




000
SAGM31 PGUM 290855
MTRGUM
METAR PGUM 290854Z 13005KT 10SM FEW020 27/24 A2991 RMK AO2 SLP119
T02720239 53009 $





000
SAGM31 PGUM 290855
MTRGUM
METAR PGUM 290854Z 13005KT 10SM FEW020 27/24 A2991 RMK AO2 SLP119
T02720239 53009 $





000
SAGM31 PGUM 290755
MTRGUM
METAR PGUM 290754Z 12006KT 10SM FEW020 28/24 A2989 RMK AO2 SLP114
T02780244 $




000
SAGM31 PGUM 290755
MTRGUM
METAR PGUM 290754Z 12006KT 10SM FEW020 28/24 A2989 RMK AO2 SLP114
T02780244 $





000
SAGM31 PGUM 290655
MTRGUM
METAR PGUM 290654Z 09010KT 10SM SCT020 SCT027 BKN045 28/24 A2988 RMK
AO2 SLP111 T02830244 $




000
SAGM31 PGUM 290655
MTRGUM
METAR PGUM 290654Z 09010KT 10SM SCT020 SCT027 BKN045 28/24 A2988 RMK
AO2 SLP111 T02830244 $





000
SAGM31 PGUM 290603
MTRGUM
SPECI PGUM 290603Z 11010KT 10SM FEW018 29/24 A2988 RMK AO2 $




000
SAGM31 PGUM 290603
MTRGUM
SPECI PGUM 290603Z 11010KT 10SM FEW018 29/24 A2988 RMK AO2 $





000
SAGM31 PGUM 290554
MTRGUM
METAR PGUM 290554Z 13006KT 10SM SCT018 BKN025 29/24 A2988 RMK AO2
SLP110 60008 T02890244 10294 20244 56010 $





000
SAGM31 PGUM 290554
MTRGUM
METAR PGUM 290554Z 13006KT 10SM SCT018 BKN025 29/24 A2988 RMK AO2
SLP110 60008 T02890244 10294 20244 56010 $




000
SAGM31 PGUM 290554
MTRGUM
METAR PGUM 290554Z 13006KT 10SM SCT018 BKN025 29/24 A2988 RMK AO2
SLP110 60008 T02890244 10294 20244 56010 $





000
SAGM31 PGUM 290529
MTRGUM
SPECI PGUM 290528Z 14007KT 10SM SCT018 BKN024 29/24 A2988 RMK AO2 $




000
SAGM31 PGUM 290529
MTRGUM
SPECI PGUM 290528Z 14007KT 10SM SCT018 BKN024 29/24 A2988 RMK AO2 $





000
SAGM31 PGUM 290529
MTRGUM
SPECI PGUM 290528Z 14007KT 10SM SCT018 BKN024 29/24 A2988 RMK AO2 $




000
SAGM31 PGUM 290529
MTRGUM
SPECI PGUM 290528Z 14007KT 10SM SCT018 BKN024 29/24 A2988 RMK AO2 $





000
SAGM31 PGUM 290454
MTRGUM
METAR PGUM 290454Z 13008KT 10SM FEW023 SCT110 29/25 A2988 RMK AO2
SLP110 T02890250 $





000
SAGM31 PGUM 290454
MTRGUM
METAR PGUM 290454Z 13008KT 10SM FEW023 SCT110 29/25 A2988 RMK AO2
SLP110 T02890250 $




000
SAGM31 PGUM 290454
MTRGUM
METAR PGUM 290454Z 13008KT 10SM FEW023 SCT110 29/25 A2988 RMK AO2
SLP110 T02890250 $





000
SAGM31 PGUM 290454
MTRGUM
METAR PGUM 290454Z 13008KT 10SM FEW023 SCT110 29/25 A2988 RMK AO2
SLP110 T02890250 $




000
SAGM31 PGUM 290354
MTRGUM
METAR PGUM 290354Z 11008KT 10SM CLR 27/25 A2989 RMK AO2 RAE00 SLP113
P0000 T02720250 $




000
SAGM31 PGUM 290354
MTRGUM
METAR PGUM 290354Z 11008KT 10SM CLR 27/25 A2989 RMK AO2 RAE00 SLP113
P0000 T02720250 $





000
SAGM31 PGUM 290354
MTRGUM
METAR PGUM 290354Z 11008KT 10SM CLR 27/25 A2989 RMK AO2 RAE00 SLP113
P0000 T02720250 $





000
SAGM31 PGUM 290354
MTRGUM
METAR PGUM 290354Z 11008KT 10SM CLR 27/25 A2989 RMK AO2 RAE00 SLP113
P0000 T02720250 $




000
SAGM31 PGUM 290255
MTRGUM
METAR PGUM 290254Z 14006KT 9SM -RA SCT045 BKN070 OVC090 26/24 A2991
RMK AO2 SLP121 P0001 60005 T02560239 58013 $





000
SAGM31 PGUM 290255
MTRGUM
METAR PGUM 290254Z 14006KT 9SM -RA SCT045 BKN070 OVC090 26/24 A2991
RMK AO2 SLP121 P0001 60005 T02560239 58013 $




000
SAGM31 PGUM 290155
MTRGUM
METAR PGUM 290154Z 12004KT 8SM -RA SCT047 BKN055 OVC095 26/24 A2994
RMK AO2 RAB10 SLP130 P0004 T02560239 $




000
SAGM31 PGUM 290155
MTRGUM
METAR PGUM 290154Z 12004KT 8SM -RA SCT047 BKN055 OVC095 26/24 A2994
RMK AO2 RAB10 SLP130 P0004 T02560239 $





000
SAGM31 PGUM 290055
MTRGUM
METAR PGUM 290054Z 11009G15KT 10SM FEW050 OVC090 27/23 A2995 RMK AO2
RAB2359E08 SLP132 P0000 T02670233 $





000
SAGM31 PGUM 290055
MTRGUM
METAR PGUM 290054Z 11009G15KT 10SM FEW050 OVC090 27/23 A2995 RMK AO2
RAB2359E08 SLP132 P0000 T02670233 $




000
SAGM31 PGUM 290055
MTRGUM
METAR PGUM 290054Z 11009G15KT 10SM FEW050 OVC090 27/23 A2995 RMK AO2
RAB2359E08 SLP132 P0000 T02670233 $





000
SAGM31 PGUM 290055
MTRGUM
METAR PGUM 290054Z 11009G15KT 10SM FEW050 OVC090 27/23 A2995 RMK AO2
RAB2359E08 SLP132 P0000 T02670233 $




000
SAGM31 PGUM 282355
MTRGUM
METAR PGUM 282354Z 13006KT 10SM SCT016 BKN065 BKN090 28/25 A2995 RMK
AO2 SLP133 60000 T02830250 10283 20250 51013 $




000
SAGM31 PGUM 282355
MTRGUM
METAR PGUM 282354Z 13006KT 10SM SCT016 BKN065 BKN090 28/25 A2995 RMK
AO2 SLP133 60000 T02830250 10283 20250 51013 $





000
SAGM31 PGUM 282355
MTRGUM
METAR PGUM 282354Z 13006KT 10SM SCT016 BKN065 BKN090 28/25 A2995 RMK
AO2 SLP133 60000 T02830250 10283 20250 51013 $




000
SAGM31 PGUM 282355
MTRGUM
METAR PGUM 282354Z 13006KT 10SM SCT016 BKN065 BKN090 28/25 A2995 RMK
AO2 SLP133 60000 T02830250 10283 20250 51013 $





000
SAGM31 PGUM 282255
MTRGUM
METAR PGUM 282254Z 16006KT 10SM SCT023 BKN055 28/25 A2994 RMK AO2
SLP132 T02780250 $




000
SAGM31 PGUM 282255
MTRGUM
METAR PGUM 282254Z 16006KT 10SM SCT023 BKN055 28/25 A2994 RMK AO2
SLP132 T02780250 $





000
SAGM31 PGUM 282154
MTRGUM
METAR PGUM 282154Z 15006KT 10SM BKN041 27/24 A2992 RMK AO2 SLP124
T02670244 $





000
SAGM31 PGUM 282154
MTRGUM
METAR PGUM 282154Z 15006KT 10SM BKN041 27/24 A2992 RMK AO2 SLP124
T02670244 $




000
SAGM31 PGUM 282139
MTRGUM
SPECI PGUM 282138Z 17005KT 10SM SCT025 SCT045 27/23 A2991 RMK AO2 $





000
SAGM31 PGUM 282139
MTRGUM
SPECI PGUM 282138Z 17005KT 10SM SCT025 SCT045 27/23 A2991 RMK AO2 $




000
SAGM31 PGUM 282139
MTRGUM
SPECI PGUM 282138Z 17005KT 10SM SCT025 SCT045 27/23 A2991 RMK AO2 $





000
SAGM31 PGUM 282115
MTRGUM
SPECI PGUM 282114Z 17005KT 10SM BKN025 26/21 A2991 RMK AO2 $




000
SAGM31 PGUM 282115
MTRGUM
SPECI PGUM 282114Z 17005KT 10SM BKN025 26/21 A2991 RMK AO2 $





000
SAGM31 PGUM 282054
MTRGUM
METAR PGUM 282054Z 15006KT 10SM CLR 26/22 A2991 RMK AO2 RAE1959
SLP120 P0000 60000 T02610222 53011 $




000
SAGM31 PGUM 282054
MTRGUM
METAR PGUM 282054Z 15006KT 10SM CLR 26/22 A2991 RMK AO2 RAE1959
SLP120 P0000 60000 T02610222 53011 $





000
SAGM31 PGUM 282039
MTRGUM
SPECI PGUM 282038Z 14006KT 10SM SCT027 26/22 A2991 RMK AO2 RAE1959
P0000 $




000
SAGM31 PGUM 282039
MTRGUM
SPECI PGUM 282038Z 14006KT 10SM SCT027 26/22 A2991 RMK AO2 RAE1959
P0000 $





000
SAGM31 PGUM 281954
MTRGUM
METAR PGUM 281954Z 14009KT 10SM -RA BKN027 OVC034 25/23 A2990 RMK
AO2 RAB50 SLP117 FQT LTGICCC DSNT SW-W P0000 T02500228 $




000
SAGM31 PGUM 281954
MTRGUM
METAR PGUM 281954Z 14009KT 10SM -RA BKN027 OVC034 25/23 A2990 RMK
AO2 RAB50 SLP117 FQT LTGICCC DSNT SW-W P0000 T02500228 $





000
SAGM31 PGUM 281936
MTRGUM
SPECI PGUM 281935Z 15008KT 10SM FEW011 SCT015 BKN025 25/24 A2989 RMK
AO2 FQT LTGICCC DSNT SW-W $





000
SAGM31 PGUM 281936
MTRGUM
SPECI PGUM 281935Z 15008KT 10SM FEW011 SCT015 BKN025 25/24 A2989 RMK
AO2 FQT LTGICCC DSNT SW-W $




000
SAGM31 PGUM 281855
MTRGUM
METAR PGUM 281854Z 18005KT 10SM FEW010 BKN014 BKN023 25/24 A2987 RMK
AO2 RAE03 SLP106 OCNL LTGCC DSNT SE-W P0000 T02500239 $




000
SAGM31 PGUM 281855
MTRGUM
METAR PGUM 281854Z 18005KT 10SM FEW010 BKN014 BKN023 25/24 A2987 RMK
AO2 RAE03 SLP106 OCNL LTGCC DSNT SE-W P0000 T02500239 $





000
SAGM31 PGUM 281847
MTRGUM
SPECI PGUM 281846Z 17006KT 10SM FEW010 BKN014 BKN023 25/24 A2986 RMK
AO2 RAE03 OCNL LTGCC DSNT SE-W P0000 $




000
SAGM31 PGUM 281847
MTRGUM
SPECI PGUM 281846Z 17006KT 10SM FEW010 BKN014 BKN023 25/24 A2986 RMK
AO2 RAE03 OCNL LTGCC DSNT SE-W P0000 $





000
SAGM31 PGUM 281829
MTRGUM
SPECI PGUM 281828Z 17008G16KT 10SM BKN012 BKN020 BKN120 25/24 A2987
RMK AO2 RAE03 OCNL LTGCC DSNT E-S P0000 $




000
SAGM31 PGUM 281829
MTRGUM
SPECI PGUM 281828Z 17008G16KT 10SM BKN012 BKN020 BKN120 25/24 A2987
RMK AO2 RAE03 OCNL LTGCC DSNT E-S P0000 $





000
SAGM31 PGUM 281829
MTRGUM
SPECI PGUM 281828Z 17008G16KT 10SM BKN012 BKN020 BKN120 25/24 A2987
RMK AO2 RAE03 OCNL LTGCC DSNT E-S P0000 $




000
SAGM31 PGUM 281829
MTRGUM
SPECI PGUM 281828Z 17008G16KT 10SM BKN012 BKN020 BKN120 25/24 A2987
RMK AO2 RAE03 OCNL LTGCC DSNT E-S P0000 $





000
SAGM31 PGUM 281813
MTRGUM
SPECI PGUM 281812Z 17010KT 10SM SCT009 BKN015 25/24 A2987 RMK AO2
RAE03 OCNL LTGCC DSNT E-S P0000 $




000
SAGM31 PGUM 281813
MTRGUM
SPECI PGUM 281812Z 17010KT 10SM SCT009 BKN015 25/24 A2987 RMK AO2
RAE03 OCNL LTGCC DSNT E-S P0000 $




000
SAGM31 PGUM 281813
MTRGUM
SPECI PGUM 281812Z 17010KT 10SM SCT009 BKN015 25/24 A2987 RMK AO2
RAE03 OCNL LTGCC DSNT E-S P0000 $





000
SAGM31 PGUM 281802
MTRGUM
SPECI PGUM 281801Z 16011KT 10SM -RA BKN009 OVC015 25/24 A2987 RMK
AO2 OCNL LTGCC DSNT E-S P0000 $





000
SAGM31 PGUM 281802
MTRGUM
SPECI PGUM 281801Z 16011KT 10SM -RA BKN009 OVC015 25/24 A2987 RMK
AO2 OCNL LTGCC DSNT E-S P0000 $




000
SAGM31 PGUM 281755
MTRGUM
METAR PGUM 281754Z 16008G17KT 10SM -RA BKN012 OVC110 25/24 A2988 RMK
AO2 RAB00E26B43 SLP109 P0002 60074 T02500244 10261 20250 55000 $




000
SAGM31 PGUM 281755
MTRGUM
METAR PGUM 281754Z 16008G17KT 10SM -RA BKN012 OVC110 25/24 A2988 RMK
AO2 RAB00E26B43 SLP109 P0002 60074 T02500244 10261 20250 55000 $





000
SAGM31 PGUM 281748
MTRGUM
SPECI PGUM 281747Z 14008KT 10SM -RA BKN012 OVC110 25/24 A2987 RMK
AO2 RAB00E26B43 P0002 $




000
SAGM31 PGUM 281748
MTRGUM
SPECI PGUM 281747Z 14008KT 10SM -RA BKN012 OVC110 25/24 A2987 RMK
AO2 RAB00E26B43 P0002 $





000
SAGM31 PGUM 281705
MTRGUM
SPECI PGUM 281704Z 13007KT 7SM RA BKN007 BKN016 OVC080 25/25 A2985
RMK AO2 RAB00 P0000 $




000
SAGM31 PGUM 281705
MTRGUM
SPECI PGUM 281704Z 13007KT 7SM RA BKN007 BKN016 OVC080 25/25 A2985
RMK AO2 RAB00 P0000 $





000
SAGM31 PGUM 281705
MTRGUM
SPECI PGUM 281704Z 13007KT 7SM RA BKN007 BKN016 OVC080 25/25 A2985
RMK AO2 RAB00 P0000 $




000
SAGM31 PGUM 281705
MTRGUM
SPECI PGUM 281704Z 13007KT 7SM RA BKN007 BKN016 OVC080 25/25 A2985
RMK AO2 RAB00 P0000 $





000
SAGM31 PGUM 281654
MTRGUM
METAR PGUM 281654Z 14008KT 10SM SCT007 BKN013 OVC080 26/25 A2985 RMK
AO2 RAB1557E48 SLP101 FQT LTGCC DSNT E P0003 T02560250 $




000
SAGM31 PGUM 281654
MTRGUM
METAR PGUM 281654Z 14008KT 10SM SCT007 BKN013 OVC080 26/25 A2985 RMK
AO2 RAB1557E48 SLP101 FQT LTGCC DSNT E P0003 T02560250 $





000
SAGM31 PGUM 281635
MTRGUM
SPECI PGUM 281635Z 13011G17KT 6SM -RA BR SCT007 BKN015 OVC023 26/25
A2986 RMK AO2 RAB1557 FQT LTGCC DSNT E P0003 $





000
SAGM31 PGUM 281635
MTRGUM
SPECI PGUM 281635Z 13011G17KT 6SM -RA BR SCT007 BKN015 OVC023 26/25
A2986 RMK AO2 RAB1557 FQT LTGCC DSNT E P0003 $




000
SAGM31 PGUM 281634
MTRGUM
SPECI PGUM 281634Z 13009G15KT 6SM -RA BR SCT007 BKN015 OVC023 26/24
A2986 RMK AO2 RAB1557 FQT LTGCC DSNT E P0003 $





000
SAGM31 PGUM 281634
MTRGUM
SPECI PGUM 281634Z 13009G15KT 6SM -RA BR SCT007 BKN015 OVC023 26/24
A2986 RMK AO2 RAB1557 FQT LTGCC DSNT E P0003 $




000
SAGM31 PGUM 281634
MTRGUM
SPECI PGUM 281634Z 13009G15KT 6SM -RA BR SCT007 BKN015 OVC023 26/24
A2986 RMK AO2 RAB1557 FQT LTGCC DSNT E P0003 $





000
SAGM31 PGUM 281537
MTRGUM
SPECI PGUM 281537Z 13005KT 5SM SCT012 BKN040 OVC080 26/25 A2986 RMK
AO2 RAE34 P0018 $





000
SAGM31 PGUM 281530
MTRGUM
SPECI PGUM 281530Z 11006KT 5SM -RA FEW008 BKN023 OVC045 26/25 A2986
RMK AO2 P0018 $





000
SAGM31 PGUM 281517
MTRGUM
SPECI PGUM 281517Z 09011KT 5SM -RA SCT008 BKN014 OVC021 25/24 A2987
RMK AO2 P0017 $




000
SAGM31 PGUM 281517
MTRGUM
SPECI PGUM 281517Z 09011KT 5SM -RA SCT008 BKN014 OVC021 25/24 A2987
RMK AO2 P0017 $




000
SAGM31 PGUM 281517
MTRGUM
SPECI PGUM 281517Z 09011KT 5SM -RA SCT008 BKN014 OVC021 25/24 A2987
RMK AO2 P0017 $





000
SAGM31 PGUM 281501
MTRGUM
SPECI PGUM 281501Z 11011G16KT 1 1/2SM +RA SCT008 BKN012 OVC028 26/25
A2987 RMK AO2 P0009 $




000
SAGM31 PGUM 281501
MTRGUM
SPECI PGUM 281501Z 11011G16KT 1 1/2SM +RA SCT008 BKN012 OVC028 26/25
A2987 RMK AO2 P0009 $





000
SAGM31 PGUM 281454
MTRGUM
METAR PGUM 281454Z 12006KT 1 1/2SM +RA SCT008 BKN016 OVC028 26/25
A2988 RMK AO2 RAB16 SLP109 P0024 60051 T02560250 58002 $




000
SAGM31 PGUM 281454
MTRGUM
METAR PGUM 281454Z 12006KT 1 1/2SM +RA SCT008 BKN016 OVC028 26/25
A2988 RMK AO2 RAB16 SLP109 P0024 60051 T02560250 58002 $





000
SAGM31 PGUM 281449
MTRGUM
SPECI PGUM 281449Z 13003KT 1 3/4SM +RA SCT010 BKN017 OVC025 26/25
A2987 RMK AO2 RAB16 P0017 $





000
SAGM31 PGUM 281449
MTRGUM
SPECI PGUM 281449Z 13003KT 1 3/4SM +RA SCT010 BKN017 OVC025 26/25
A2987 RMK AO2 RAB16 P0017 $




000
SAGM31 PGUM 281449
MTRGUM
SPECI PGUM 281449Z 13003KT 1 3/4SM +RA SCT010 BKN017 OVC025 26/25
A2987 RMK AO2 RAB16 P0017 $





000
SAGM31 PGUM 281449
MTRGUM
SPECI PGUM 281449Z 13003KT 1 3/4SM +RA SCT010 BKN017 OVC025 26/25
A2987 RMK AO2 RAB16 P0017 $




000
SAGM31 PGUM 281434
MTRGUM
SPECI PGUM 281434Z 07007KT 8SM -RA FEW016 BKN028 26/26 A2987 RMK AO2
RAB16 P0008 $





000
SAGM31 PGUM 281434
MTRGUM
SPECI PGUM 281434Z 07007KT 8SM -RA FEW016 BKN028 26/26 A2987 RMK AO2
RAB16 P0008 $




000
SAGM31 PGUM 281434
MTRGUM
SPECI PGUM 281434Z 07007KT 8SM -RA FEW016 BKN028 26/26 A2987 RMK AO2
RAB16 P0008 $





000
SAGM31 PGUM 281434
MTRGUM
SPECI PGUM 281434Z 07007KT 8SM -RA FEW016 BKN028 26/26 A2987 RMK AO2
RAB16 P0008 $




000
SAGM31 PGUM 281426
MTRGUM
SPECI PGUM 281426Z 06005KT 2 1/2SM -RA FEW012 SCT020 BKN026 26/26
A2987 RMK AO2 RAB16 P0008 $




000
SAGM31 PGUM 281426
MTRGUM
SPECI PGUM 281426Z 06005KT 2 1/2SM -RA FEW012 SCT020 BKN026 26/26
A2987 RMK AO2 RAB16 P0008 $





000
SAGM31 PGUM 281408
MTRGUM
SPECI PGUM 281408Z 09008KT 10SM FEW007 SCT013 BKN023 26/26 A2988 RMK
AO2





000
SAGM31 PGUM 281408
MTRGUM
SPECI PGUM 281408Z 09008KT 10SM FEW007 SCT013 BKN023 26/26 A2988 RMK
AO2




000
SAGM31 PGUM 281355
MTRGUM
METAR PGUM 281354Z 09008KT 10SM FEW007 SCT022 26/26 A2988 RMK AO2
RAE27 SLP110 P0008 T02610256 403000250





000
SAGM31 PGUM 281355
MTRGUM
METAR PGUM 281354Z 09008KT 10SM FEW007 SCT022 26/26 A2988 RMK AO2
RAE27 SLP110 P0008 T02610256 403000250




000
SAGM31 PGUM 281339
MTRGUM
SPECI PGUM 281338Z 11007KT 10SM FEW011 SCT025 SCT034 26/26 A2988 RMK
AO2 RAE27 P0008





000
SAGM31 PGUM 281255
MTRGUM
METAR PGUM 281254Z 09009KT 3SM +RA FEW006 SCT016 OVC026 26/26 A2989
RMK AO2 RAB1155 SLP113 P0019 T02610256





000
SAGM31 PGUM 281255
MTRGUM
METAR PGUM 281254Z 09009KT 3SM +RA FEW006 SCT016 OVC026 26/26 A2989
RMK AO2 RAB1155 SLP113 P0019 T02610256




000
SAGM31 PGUM 281155
MTRGUM
METAR PGUM 281154Z 10010KT 6SM SCT008 BKN018 BKN030 26/26 A2988 RMK
AO2 RAB1056E36 SLP111 P0004 60011 70040 T02610256 10283 20256 51017




000
SAGM31 PGUM 281155
MTRGUM
METAR PGUM 281154Z 10010KT 6SM SCT008 BKN018 BKN030 26/26 A2988 RMK
AO2 RAB1056E36 SLP111 P0004 60011 70040 T02610256 10283 20256 51017





000
SAGM31 PGUM 281155
MTRGUM
METAR PGUM 281154Z 10010KT 6SM SCT008 BKN018 BKN030 26/26 A2988 RMK
AO2 RAB1056E36 SLP111 P0004 60011 70040 T02610256 10283 20256 51017





000
SAGM31 PGUM 281155
MTRGUM
METAR PGUM 281154Z 10010KT 6SM SCT008 BKN018 BKN030 26/26 A2988 RMK
AO2 RAB1056E36 SLP111 P0004 60011 70040 T02610256 10283 20256 51017




000
SAGM31 PGUM 281126
MTRGUM
SPECI PGUM 281125Z 09009KT 8SM -RA SCT007 BKN016 OVC023 26/26 A2988
RMK AO2 RAB1056 P0004




000
SAGM31 PGUM 281126
MTRGUM
SPECI PGUM 281125Z 09009KT 8SM -RA SCT007 BKN016 OVC023 26/26 A2988
RMK AO2 RAB1056 P0004





000
SAGM31 PGUM 281120
MTRGUM
SPECI PGUM 281120Z 09009G14KT 10SM BKN007 BKN012 OVC023 26/26 A2988
RMK AO2 RAB1056E19 P0004




000
SAGM31 PGUM 281120
MTRGUM
SPECI PGUM 281120Z 09009G14KT 10SM BKN007 BKN012 OVC023 26/26 A2988
RMK AO2 RAB1056E19 P0004





000
SAGM31 PGUM 281120
MTRGUM
SPECI PGUM 281120Z 09009G14KT 10SM BKN007 BKN012 OVC023 26/26 A2988
RMK AO2 RAB1056E19 P0004




000
SAGM31 PGUM 281120
MTRGUM
SPECI PGUM 281120Z 09009G14KT 10SM BKN007 BKN012 OVC023 26/26 A2988
RMK AO2 RAB1056E19 P0004





000
SAGM31 PGUM 281113
MTRGUM
SPECI PGUM 281113Z 11004KT 2 1/2SM -RA BKN009 OVC015 26/26 A2987 RMK
AO2 RAB1056 P0004




000
SAGM31 PGUM 281113
MTRGUM
SPECI PGUM 281113Z 11004KT 2 1/2SM -RA BKN009 OVC015 26/26 A2987 RMK
AO2 RAB1056 P0004





000
SAGM31 PGUM 281113
MTRGUM
SPECI PGUM 281113Z 11004KT 2 1/2SM -RA BKN009 OVC015 26/26 A2987 RMK
AO2 RAB1056 P0004





000
SAGM31 PGUM 281113
MTRGUM
SPECI PGUM 281113Z 11004KT 2 1/2SM -RA BKN009 OVC015 26/26 A2987 RMK
AO2 RAB1056 P0004




000
SAGM31 PGUM 281106
MTRGUM
SPECI PGUM 281106Z 11006KT 2 1/2SM RA SCT008 OVC016 26/26 A2988 RMK
AO2 RAB1056 P0001




000
SAGM31 PGUM 281106
MTRGUM
SPECI PGUM 281106Z 11006KT 2 1/2SM RA SCT008 OVC016 26/26 A2988 RMK
AO2 RAB1056 P0001





000
SAGM31 PGUM 281054
MTRGUM
METAR PGUM 281054Z 10006KT 7SM BKN009 BKN017 OVC023 26/26 A2987 RMK
AO2 RAB16E25B43E54 SLP108 P0000 T02610256




000
SAGM31 PGUM 281054
MTRGUM
METAR PGUM 281054Z 10006KT 7SM BKN009 BKN017 OVC023 26/26 A2987 RMK
AO2 RAB16E25B43E54 SLP108 P0000 T02610256





000
SAGM31 PGUM 281054
MTRGUM
METAR PGUM 281054Z 10006KT 7SM BKN009 BKN017 OVC023 26/26 A2987 RMK
AO2 RAB16E25B43E54 SLP108 P0000 T02610256




000
SAGM31 PGUM 281054
MTRGUM
METAR PGUM 281054Z 10006KT 7SM BKN009 BKN017 OVC023 26/26 A2987 RMK
AO2 RAB16E25B43E54 SLP108 P0000 T02610256





000
SAGM31 PGUM 281017
MTRGUM
SPECI PGUM 281017Z 10009KT 8SM -RA FEW009 BKN023 OVC036 26/26 A2986
RMK AO2 RAB16 P0000




000
SAGM31 PGUM 281017
MTRGUM
SPECI PGUM 281017Z 10009KT 8SM -RA FEW009 BKN023 OVC036 26/26 A2986
RMK AO2 RAB16 P0000





000
SAGM31 PGUM 280954
MTRGUM
METAR PGUM 280954Z 09009KT 8SM FEW014 BKN022 26/25 A2986 RMK AO2
RAB30E46 SLP102 P0000 T02610250




000
SAGM31 PGUM 280954
MTRGUM
METAR PGUM 280954Z 09009KT 8SM FEW014 BKN022 26/25 A2986 RMK AO2
RAB30E46 SLP102 P0000 T02610250




000
SAGM31 PGUM 280954
MTRGUM
METAR PGUM 280954Z 09009KT 8SM FEW014 BKN022 26/25 A2986 RMK AO2
RAB30E46 SLP102 P0000 T02610250





000
SAGM31 PGUM 280944
MTRGUM
SPECI PGUM 280943Z 10009KT 9SM -RA FEW014 SCT019 BKN024 26/25 A2985
RMK AO2 RAB30 P0000




000
SAGM31 PGUM 280944
MTRGUM
SPECI PGUM 280943Z 10009KT 9SM -RA FEW014 SCT019 BKN024 26/25 A2985
RMK AO2 RAB30 P0000





000
SAGM31 PGUM 280932
MTRGUM
SPECI PGUM 280932Z 10009KT 7SM -RA BKN014 BKN021 27/25 A2985 RMK AO2
RAB30 P0000




000
SAGM31 PGUM 280932
MTRGUM
SPECI PGUM 280932Z 10009KT 7SM -RA BKN014 BKN021 27/25 A2985 RMK AO2
RAB30 P0000





000
SAGM31 PGUM 280932
MTRGUM
SPECI PGUM 280932Z 10009KT 7SM -RA BKN014 BKN021 27/25 A2985 RMK AO2
RAB30 P0000




000
SAGM31 PGUM 280932
MTRGUM
SPECI PGUM 280932Z 10009KT 7SM -RA BKN014 BKN021 27/25 A2985 RMK AO2
RAB30 P0000





000
SAGM31 PGUM 280854
MTRGUM
METAR PGUM 280854Z 09008KT 10SM FEW018 27/25 A2983 RMK AO2
RAB0759E24 SLP096 P0000 60002 T02670250 53012




000
SAGM31 PGUM 280854
MTRGUM
METAR PGUM 280854Z 09008KT 10SM FEW018 27/25 A2983 RMK AO2
RAB0759E24 SLP096 P0000 60002 T02670250 53012





000
SAGM31 PGUM 280655
MTRGUM
METAR PGUM 280654Z 11007KT 10SM FEW014 SCT055 SCT065 28/26 A2981 RMK
AO2 RAB25E37 SLP086 P0000 T02780256





000
SAGM31 PGUM 280655
MTRGUM
METAR PGUM 280654Z 11007KT 10SM FEW014 SCT055 SCT065 28/26 A2981 RMK
AO2 RAB25E37 SLP086 P0000 T02780256




000
SAGM31 PGUM 280614
MTRGUM
SPECI PGUM 280613Z 10009KT 10SM FEW017 SCT023 SCT031 28/25 A2980 RMK
AO2





000
SAGM31 PGUM 280614
MTRGUM
SPECI PGUM 280613Z 10009KT 10SM FEW017 SCT023 SCT031 28/25 A2980 RMK
AO2




000
SAGM31 PGUM 280614
MTRGUM
SPECI PGUM 280613Z 10009KT 10SM FEW017 SCT023 SCT031 28/25 A2980 RMK
AO2





000
SAGM31 PGUM 280606
MTRGUM
SPECI PGUM 280605Z 10011KT 10SM SCT015 BKN023 BKN030 28/24 A2980 RMK
AO2




000
SAGM31 PGUM 280606
MTRGUM
SPECI PGUM 280605Z 10011KT 10SM SCT015 BKN023 BKN030 28/24 A2980 RMK
AO2





000
SAGM31 PGUM 280555
MTRGUM
METAR PGUM 280554Z 10011G16KT 10SM SCT015 SCT019 SCT036 28/26 A2980
RMK AO2 RAB43E53 SLP083 P0000 60002 T02780256 10300 20267 58006




000
SAGM31 PGUM 280555
MTRGUM
METAR PGUM 280554Z 10011G16KT 10SM SCT015 SCT019 SCT036 28/26 A2980
RMK AO2 RAB43E53 SLP083 P0000 60002 T02780256 10300 20267 58006





000
SAGM31 PGUM 280555
MTRGUM
METAR PGUM 280554Z 10011G16KT 10SM SCT015 SCT019 SCT036 28/26 A2980
RMK AO2 RAB43E53 SLP083 P0000 60002 T02780256 10300 20267 58006




000
SAGM31 PGUM 280555
MTRGUM
METAR PGUM 280554Z 10011G16KT 10SM SCT015 SCT019 SCT036 28/26 A2980
RMK AO2 RAB43E53 SLP083 P0000 60002 T02780256 10300 20267 58006





000
SAGM31 PGUM 280454
MTRGUM
METAR PGUM 280454Z 09008KT 10SM FEW013 SCT049 BKN070 27/26 A2981 RMK
AO2 RAB18E51 SLP086 P0001 T02720256




000
SAGM31 PGUM 280454
MTRGUM
METAR PGUM 280454Z 09008KT 10SM FEW013 SCT049 BKN070 27/26 A2981 RMK
AO2 RAB18E51 SLP086 P0001 T02720256





000
SAGM31 PGUM 280354
MTRGUM
METAR PGUM 280354Z 11010G18KT 10SM SCT015 BKN022 29/24 A2982 RMK AO2
SLP089 T02890244




000
SAGM31 PGUM 280354
MTRGUM
METAR PGUM 280354Z 11010G18KT 10SM SCT015 BKN022 29/24 A2982 RMK AO2
SLP089 T02890244




000
SAGM31 PGUM 280354
MTRGUM
METAR PGUM 280354Z 11010G18KT 10SM SCT015 BKN022 29/24 A2982 RMK AO2
SLP089 T02890244





000
SAGM31 PGUM 280351
MTRGUM
SPECI PGUM 280350Z 08010G19KT 10SM SCT015 BKN022 29/24 A2982 RMK AO2





000
SAGM31 PGUM 280315
MTRGUM
SPECI PGUM 280315Z 11011G18KT 10SM FEW015 SCT023 BKN040 29/25 A2983
RMK AO2





000
SAGM31 PGUM 280315
MTRGUM
SPECI PGUM 280315Z 11011G18KT 10SM FEW015 SCT023 BKN040 29/25 A2983
RMK AO2





000
SAGM31 PGUM 280255
MTRGUM
METAR PGUM 280254Z 12014G20KT 10SM BKN017 BKN023 30/25 A2984 RMK AO2
SLP096 T03000250 56012




000
SAGM31 PGUM 280255
MTRGUM
METAR PGUM 280254Z 12014G20KT 10SM BKN017 BKN023 30/25 A2984 RMK AO2
SLP096 T03000250 56012




000
SAGM31 PGUM 280255
MTRGUM
METAR PGUM 280254Z 12014G20KT 10SM BKN017 BKN023 30/25 A2984 RMK AO2
SLP096 T03000250 56012





000
SAGM31 PGUM 280255
MTRGUM
METAR PGUM 280254Z 12014G20KT 10SM BKN017 BKN023 30/25 A2984 RMK AO2
SLP096 T03000250 56012





000
SAGM31 PGUM 280215
MTRGUM
SPECI PGUM 280214Z 10011KT 10SM BKN017 29/25 A2984 RMK AO2




000
SAGM31 PGUM 280215
MTRGUM
SPECI PGUM 280214Z 10011KT 10SM BKN017 29/25 A2984 RMK AO2





000
SAGM31 PGUM 280206
MTRGUM
SPECI PGUM 280205Z 10013G19KT 10SM SCT017 29/24 A2984 RMK AO2





000
SAGM31 PGUM 280206
MTRGUM
SPECI PGUM 280205Z 10013G19KT 10SM SCT017 29/24 A2984 RMK AO2




000
SAGM31 PGUM 280155
MTRGUM
METAR PGUM 280154Z 11011KT 10SM SCT016 BKN024 29/25 A2984 RMK AO2
SLP098 T02940250





000
SAGM31 PGUM 280155
MTRGUM
METAR PGUM 280154Z 11011KT 10SM SCT016 BKN024 29/25 A2984 RMK AO2
SLP098 T02940250




000
SAGM31 PGUM 280155
MTRGUM
METAR PGUM 280154Z 11011KT 10SM SCT016 BKN024 29/25 A2984 RMK AO2
SLP098 T02940250




000
SAGM31 PGUM 280155
MTRGUM
METAR PGUM 280154Z 11011KT 10SM SCT016 BKN024 29/25 A2984 RMK AO2
SLP098 T02940250





000
SAGM31 PGUM 280136
MTRGUM
SPECI PGUM 280135Z 10012KT 10SM SCT016 BKN024 29/24 A2985 RMK AO2




000
SAGM31 PGUM 280136
MTRGUM
SPECI PGUM 280135Z 10012KT 10SM SCT016 BKN024 29/24 A2985 RMK AO2




000
SAGM31 PGUM 280136
MTRGUM
SPECI PGUM 280135Z 10012KT 10SM SCT016 BKN024 29/24 A2985 RMK AO2





000
SAGM31 PGUM 280136
MTRGUM
SPECI PGUM 280135Z 10012KT 10SM SCT016 BKN024 29/24 A2985 RMK AO2





000
SAGM31 PGUM 280055
MTRGUM
METAR PGUM 280054Z 08011KT 10SM SCT016 29/24 A2986 RMK AO2 SLP104
T02890244





000
SAGM31 PGUM 280055
MTRGUM
METAR PGUM 280054Z 08011KT 10SM SCT016 29/24 A2986 RMK AO2 SLP104
T02890244




000
SAGM31 PGUM 280010
MTRGUM
SPECI PGUM 280010Z 10014KT 10SM FEW014 SCT020 28/24 A2987 RMK AO2




000
SAGM31 PGUM 280010
MTRGUM
SPECI PGUM 280010Z 10014KT 10SM FEW014 SCT020 28/24 A2987 RMK AO2





000
SAGM31 PGUM 280001
MTRGUM
SPECI PGUM 280001Z 08014G20KT 10SM SCT014 SCT020 BKN026 28/24 A2987
RMK AO2




000
SAGM31 PGUM 280001
MTRGUM
SPECI PGUM 280001Z 08014G20KT 10SM SCT014 SCT020 BKN026 28/24 A2987
RMK AO2





000
SAGM31 PGUM 280001
MTRGUM
SPECI PGUM 280001Z 08014G20KT 10SM SCT014 SCT020 BKN026 28/24 A2987
RMK AO2




000
SAGM31 PGUM 280001
MTRGUM
SPECI PGUM 280001Z 08014G20KT 10SM SCT014 SCT020 BKN026 28/24 A2987
RMK AO2





000
SAGM31 PGUM 272355
MTRGUM
METAR PGUM 272354Z 10012G19KT 10SM FEW014 SCT020 28/24 A2987 RMK AO2
SLP108 60008 T02780244 10283 20250 51007




000
SAGM31 PGUM 272355
MTRGUM
METAR PGUM 272354Z 10012G19KT 10SM FEW014 SCT020 28/24 A2987 RMK AO2
SLP108 60008 T02780244 10283 20250 51007





000
SAGM31 PGUM 272344
MTRGUM
SPECI PGUM 272343Z 09013G23KT 10SM FEW017 SCT024 28/24 A2987 RMK AO2




000
SAGM31 PGUM 272344
MTRGUM
SPECI PGUM 272343Z 09013G23KT 10SM FEW017 SCT024 28/24 A2987 RMK AO2





000
SAGM31 PGUM 272344
MTRGUM
SPECI PGUM 272343Z 09013G23KT 10SM FEW017 SCT024 28/24 A2987 RMK AO2




000
SAGM31 PGUM 272325
MTRGUM
SPECI PGUM 272324Z 10009KT 10SM SCT017 SCT021 BKN027 28/25 A2987 RMK
AO2




000
SAGM31 PGUM 272255
MTRGUM
METAR PGUM 272254Z 10010KT 10SM FEW013 BKN039 28/25 A2987 RMK AO2
SLP107 T02780250




000
SAGM31 PGUM 272255
MTRGUM
METAR PGUM 272254Z 10010KT 10SM FEW013 BKN039 28/25 A2987 RMK AO2
SLP107 T02780250





000
SAGM31 PGUM 272240
MTRGUM
SPECI PGUM 272239Z 11011KT 10SM FEW013 BKN037 28/26 A2987 RMK AO2




000
SAGM31 PGUM 272240
MTRGUM
SPECI PGUM 272239Z 11011KT 10SM FEW013 BKN037 28/26 A2987 RMK AO2





000
SAGM31 PGUM 272154
MTRGUM
METAR PGUM 272154Z 11004KT 10SM FEW009 SCT019 BKN028 27/26 A2987 RMK
AO2 RAB32E44 SLP107 P0001 T02670256




000
SAGM31 PGUM 272154
MTRGUM
METAR PGUM 272154Z 11004KT 10SM FEW009 SCT019 BKN028 27/26 A2987 RMK
AO2 RAB32E44 SLP107 P0001 T02670256





000
SAGM31 PGUM 272153
MTRGUM
SPECI PGUM 272152Z 10004KT 10SM FEW009 BKN028 BKN034 26/26 A2987 RMK
AO2 RAB32E44 P0001





000
SAGM31 PGUM 272153
MTRGUM
SPECI PGUM 272152Z 10004KT 10SM FEW009 BKN028 BKN034 26/26 A2987 RMK
AO2 RAB32E44 P0001




000
SAGM31 PGUM 272153
MTRGUM
SPECI PGUM 272152Z 10004KT 10SM FEW009 BKN028 BKN034 26/26 A2987 RMK
AO2 RAB32E44 P0001




000
SAGM31 PGUM 272055
MTRGUM
METAR PGUM 272054Z 11004KT 10SM FEW020 SCT040 26/24 A2985 RMK AO2
RAE39 SLP101 P0005 60007 T02560244 53009





000
SAGM31 PGUM 272055
MTRGUM
METAR PGUM 272054Z 11004KT 10SM FEW020 SCT040 26/24 A2985 RMK AO2
RAE39 SLP101 P0005 60007 T02560244 53009




000
SAGM31 PGUM 272036
MTRGUM
SPECI PGUM 272036Z 11007KT 5SM -RA BR FEW008 SCT037 SCT060 26/25
A2985 RMK AO2 P0005




000
SAGM31 PGUM 271954
MTRGUM
METAR PGUM 271954Z 11004KT 6SM -RA BR FEW024 SCT044 SCT070 26/24
A2984 RMK AO2 RAB49 SLP095 P0001 T02560244





000
SAGM31 PGUM 271855
MTRGUM
METAR PGUM 271854Z 15004KT 10SM FEW009 SCT034 25/24 A2983 RMK AO2
RAE22 SLP092 P0001 T02500244




000
SAGM31 PGUM 271755
MTRGUM
METAR PGUM 271754Z 12004KT 10SM -RA FEW027 BKN050 25/24 A2982 RMK
AO2 RAB1659 SLP091 P0002 60018 T02500239 10267 20250 56006





000
SAGM31 PGUM 271755
MTRGUM
METAR PGUM 271754Z 12004KT 10SM -RA FEW027 BKN050 25/24 A2982 RMK
AO2 RAB1659 SLP091 P0002 60018 T02500239 10267 20250 56006




000
SAGM31 PGUM 271755
MTRGUM
METAR PGUM 271754Z 12004KT 10SM -RA FEW027 BKN050 25/24 A2982 RMK
AO2 RAB1659 SLP091 P0002 60018 T02500239 10267 20250 56006





000
SAGM31 PGUM 271654
MTRGUM
METAR PGUM 271654Z 07005KT 7SM FEW010 BKN035 OVC045 25/24 A2983 RMK
AO2 RAB38E54 SLP092 P0009 T02500244




000
SAGM31 PGUM 271654
MTRGUM
METAR PGUM 271654Z 07005KT 7SM FEW010 BKN035 OVC045 25/24 A2983 RMK
AO2 RAB38E54 SLP092 P0009 T02500244





000
SAGM31 PGUM 271641
MTRGUM
SPECI PGUM 271641Z 07009KT 4SM +RA BR FEW009 SCT015 BKN023 26/24
A2983 RMK AO2 RAB38 P0002





000
SAGM31 PGUM 271641
MTRGUM
SPECI PGUM 271641Z 07009KT 4SM +RA BR FEW009 SCT015 BKN023 26/24
A2983 RMK AO2 RAB38 P0002




000
SAGM31 PGUM 271554
MTRGUM
METAR PGUM 271554Z 11004KT 10SM FEW017 26/24 A2983 RMK AO2 SLP092
T02610244




000
SAGM31 PGUM 271554
MTRGUM
METAR PGUM 271554Z 11004KT 10SM FEW017 26/24 A2983 RMK AO2 SLP092
T02610244





000
SAGM31 PGUM 271455
MTRGUM
METAR PGUM 271454Z 00000KT 10SM FEW019 SCT044 BKN060 25/24 A2984 RMK
AO2 RAB03E54 SLP097 P0007 60007 T02500239 58013




000
SAGM31 PGUM 271455
MTRGUM
METAR PGUM 271454Z 00000KT 10SM FEW019 SCT044 BKN060 25/24 A2984 RMK
AO2 RAB03E54 SLP097 P0007 60007 T02500239 58013




000
SAGM31 PGUM 271455
MTRGUM
METAR PGUM 271454Z 00000KT 10SM FEW019 SCT044 BKN060 25/24 A2984 RMK
AO2 RAB03E54 SLP097 P0007 60007 T02500239 58013





000
SAGM31 PGUM 271355
MTRGUM
METAR PGUM 271354Z 08003KT 10SM CLR 26/24 A2986 RMK AO2 SLP102
T02610244 403060217




000
SAGM31 PGUM 271355
MTRGUM
METAR PGUM 271354Z 08003KT 10SM CLR 26/24 A2986 RMK AO2 SLP102
T02610244 403060217





000
SAGM31 PGUM 271355
MTRGUM
METAR PGUM 271354Z 08003KT 10SM CLR 26/24 A2986 RMK AO2 SLP102
T02610244 403060217





000
SAGM31 PGUM 271255
MTRGUM
METAR PGUM 271254Z 00000KT 10SM FEW031 SCT045 SCT050 26/25 A2987 RMK
AO2 SLP107 T02610250




000
SAGM31 PGUM 271255
MTRGUM
METAR PGUM 271254Z 00000KT 10SM FEW031 SCT045 SCT050 26/25 A2987 RMK
AO2 SLP107 T02610250




000
SAGM31 PGUM 271255
MTRGUM
METAR PGUM 271254Z 00000KT 10SM FEW031 SCT045 SCT050 26/25 A2987 RMK
AO2 SLP107 T02610250





000
SAGM31 PGUM 271255
MTRGUM
METAR PGUM 271254Z 00000KT 10SM FEW031 SCT045 SCT050 26/25 A2987 RMK
AO2 SLP107 T02610250





000
SAGM31 PGUM 271155
MTRGUM
METAR PGUM 271154Z 05005KT 10SM FEW028 SCT075 26/25 A2988 RMK AO2
RAB36E45 SLP110 P0000 60001 70001 T02610250 10294 20261 51016




000
SAGM31 PGUM 271155
MTRGUM
METAR PGUM 271154Z 05005KT 10SM FEW028 SCT075 26/25 A2988 RMK AO2
RAB36E45 SLP110 P0000 60001 70001 T02610250 10294 20261 51016





000
SAGM31 PGUM 271054
MTRGUM
METAR PGUM 271054Z 07006KT 10SM FEW037 SCT050 BKN060 27/25 A2987 RMK
AO2 RAB39E53 SLP105 P0000 T02670250




000
SAGM31 PGUM 271054
MTRGUM
METAR PGUM 271054Z 07006KT 10SM FEW037 SCT050 BKN060 27/25 A2987 RMK
AO2 RAB39E53 SLP105 P0000 T02670250





000
SAGM31 PGUM 271054
MTRGUM
METAR PGUM 271054Z 07006KT 10SM FEW037 SCT050 BKN060 27/25 A2987 RMK
AO2 RAB39E53 SLP105 P0000 T02670250




000
SAGM31 PGUM 271054
MTRGUM
METAR PGUM 271054Z 07006KT 10SM FEW037 SCT050 BKN060 27/25 A2987 RMK
AO2 RAB39E53 SLP105 P0000 T02670250





000
SAGM31 PGUM 270954
MTRGUM
METAR PGUM 270954Z 07007KT 10SM FEW060 28/24 A2985 RMK AO2 SLP100
T02780239




000
SAGM31 PGUM 270954
MTRGUM
METAR PGUM 270954Z 07007KT 10SM FEW060 28/24 A2985 RMK AO2 SLP100
T02780239





000
SAGM31 PGUM 270854
MTRGUM
METAR PGUM 270854Z 07007KT 10SM CLR 28/24 A2983 RMK AO2 SLP094 60000
T02780239 53011





000
SAGM31 PGUM 270854
MTRGUM
METAR PGUM 270854Z 07007KT 10SM CLR 28/24 A2983 RMK AO2 SLP094 60000
T02780239 53011




000
SAGM31 PGUM 270755
MTRGUM
METAR PGUM 270754Z 08007KT 10SM FEW039 29/23 A2982 RMK AO2 SLP090
T02890233




000
SAGM31 PGUM 270755
MTRGUM
METAR PGUM 270754Z 08007KT 10SM FEW039 29/23 A2982 RMK AO2 SLP090
T02890233





000
SAGM31 PGUM 270721
MTRGUM
SPECI PGUM 270720Z 00000KT 10SM FEW027 SCT033 28/24 A2981 RMK AO2




000
SAGM31 PGUM 270721
MTRGUM
SPECI PGUM 270720Z 00000KT 10SM FEW027 SCT033 28/24 A2981 RMK AO2





000
SAGM31 PGUM 270655
MTRGUM
METAR PGUM 270654Z 22005KT 10SM BKN027 OVC033 28/24 A2981 RMK AO2
RAB13E25 SLP086 P0000 T02780244




000
SAGM31 PGUM 270655
MTRGUM
METAR PGUM 270654Z 22005KT 10SM BKN027 OVC033 28/24 A2981 RMK AO2
RAB13E25 SLP086 P0000 T02780244





000
SAGM31 PGUM 270628
MTRGUM
SPECI PGUM 270627Z 16003KT 10SM BKN027 BKN034 OVC046 28/24 A2980 RMK
AO2 RAB13E25 P0000





000
SAGM31 PGUM 270628
MTRGUM
SPECI PGUM 270627Z 16003KT 10SM BKN027 BKN034 OVC046 28/24 A2980 RMK
AO2 RAB13E25 P0000




000
SAGM31 PGUM 270628
MTRGUM
SPECI PGUM 270627Z 16003KT 10SM BKN027 BKN034 OVC046 28/24 A2980 RMK
AO2 RAB13E25 P0000





000
SAGM31 PGUM 270555
MTRGUM
METAR PGUM 270554Z 11006KT 10SM FEW027 SCT042 BKN050 29/24 A2980 RMK
AO2 SLP083 T02940239 10306 20283 56016





000
SAGM31 PGUM 270555
MTRGUM
METAR PGUM 270554Z 11006KT 10SM FEW027 SCT042 BKN050 29/24 A2980 RMK
AO2 SLP083 T02940239 10306 20283 56016




000
SAGM31 PGUM 270454
MTRGUM
METAR PGUM 270454Z 32005KT 10SM FEW021 BKN041 BKN048 29/23 A2981 RMK
AO2 SLP086 T02890233




000
SAGM31 PGUM 270454
MTRGUM
METAR PGUM 270454Z 32005KT 10SM FEW021 BKN041 BKN048 29/23 A2981 RMK
AO2 SLP086 T02890233





000
SAGM31 PGUM 270427
MTRGUM
SPECI PGUM 270427Z 34007KT 10SM FEW024 BKN034 OVC044 29/24 A2982 RMK
AO2




000
SAGM31 PGUM 270427
MTRGUM
SPECI PGUM 270427Z 34007KT 10SM FEW024 BKN034 OVC044 29/24 A2982 RMK
AO2




000
SAGM31 PGUM 270427
MTRGUM
SPECI PGUM 270427Z 34007KT 10SM FEW024 BKN034 OVC044 29/24 A2982 RMK
AO2





000
SAGM31 PGUM 270415
MTRGUM
SPECI PGUM 270415Z 34007KT 10SM FEW024 BKN029 BKN042 29/23 A2982 RMK
AO2




000
SAGM31 PGUM 270415
MTRGUM
SPECI PGUM 270415Z 34007KT 10SM FEW024 BKN029 BKN042 29/23 A2982 RMK
AO2





000
SAGM31 PGUM 270415
MTRGUM
SPECI PGUM 270415Z 34007KT 10SM FEW024 BKN029 BKN042 29/23 A2982 RMK
AO2





000
SAGM31 PGUM 270354
MTRGUM
METAR PGUM 270354Z 35007KT 10SM SCT030 BKN035 28/23 A2983 RMK AO2
SLP093 T02830233




000
SAGM31 PGUM 270354
MTRGUM
METAR PGUM 270354Z 35007KT 10SM SCT030 BKN035 28/23 A2983 RMK AO2
SLP093 T02830233





000
SAGM31 PGUM 270255
MTRGUM
METAR PGUM 270254Z 35008KT 10SM FEW023 31/23 A2985 RMK AO2 SLP099
T03060228 58014





000
SAGM31 PGUM 270255
MTRGUM
METAR PGUM 270254Z 35008KT 10SM FEW023 31/23 A2985 RMK AO2 SLP099
T03060228 58014




000
SAGM31 PGUM 270255
MTRGUM
METAR PGUM 270254Z 35008KT 10SM FEW023 31/23 A2985 RMK AO2 SLP099
T03060228 58014





000
SAGM31 PGUM 270155
MTRGUM
METAR PGUM 270154Z 36007KT 10SM FEW023 31/23 A2987 RMK AO2 SLP108
T03060228





000
SAGM31 PGUM 270155
MTRGUM
METAR PGUM 270154Z 36007KT 10SM FEW023 31/23 A2987 RMK AO2 SLP108
T03060228




000
SAGM31 PGUM 270155
MTRGUM
METAR PGUM 270154Z 36007KT 10SM FEW023 31/23 A2987 RMK AO2 SLP108
T03060228





000
SAGM31 PGUM 270055
MTRGUM
METAR PGUM 270054Z 36007KT 330V030 10SM CLR 30/23 A2988 RMK AO2
SLP111 T03000228





000
SAGM31 PGUM 270055
MTRGUM
METAR PGUM 270054Z 36007KT 330V030 10SM CLR 30/23 A2988 RMK AO2
SLP111 T03000228




000
SAGM31 PGUM 262355
MTRGUM
METAR PGUM 262354Z 36005KT 10SM FEW022 30/22 A2989 RMK AO2 SLP113
T03000222 10300 20217 50000





000
SAGM31 PGUM 262355
MTRGUM
METAR PGUM 262354Z 36005KT 10SM FEW022 30/22 A2989 RMK AO2 SLP113
T03000222 10300 20217 50000





000
SAGM31 PGUM 262355
MTRGUM
METAR PGUM 262354Z 36005KT 10SM FEW022 30/22 A2989 RMK AO2 SLP113
T03000222 10300 20217 50000




000
SAGM31 PGUM 262355
MTRGUM
METAR PGUM 262354Z 36005KT 10SM FEW022 30/22 A2989 RMK AO2 SLP113
T03000222 10300 20217 50000




000
SAGM31 PGUM 262255
MTRGUM
METAR PGUM 262254Z 35004KT 10SM FEW020 28/23 A2990 RMK AO2 SLP115
T02830233





000
SAGM31 PGUM 262255
MTRGUM
METAR PGUM 262254Z 35004KT 10SM FEW020 28/23 A2990 RMK AO2 SLP115
T02830233




000
SAGM31 PGUM 262255
MTRGUM
METAR PGUM 262254Z 35004KT 10SM FEW020 28/23 A2990 RMK AO2 SLP115
T02830233




000
SAGM31 PGUM 262154
MTRGUM
METAR PGUM 262154Z 00000KT 10SM FEW022 28/24 A2990 RMK AO2 SLP116
T02780239




    US Dept of Commerce
    National Oceanic and Atmospheric Administration
    National Weather Service
    1325 East West Highway
    Silver Spring, MD 20910
    Page Author: NWS Internet Services Team
Disclaimer
Information Quality
Credits
Glossary
Privacy Policy
Freedom of Information Act (FOIA)
About Us
Career Opportunities